, FL

(GMT )
Crestview

Weather History for KEGI - July, 2013

Change the Weather History Date:

Monday, July 29, 2013

  Actual Average Record
Temperature  
Mean Temperature 82 °F -  
Max Temperature 90 °F - - ()
Min Temperature 73 °F - - ()
Cooling Degree Days 16    
Growing Degree Days 32 (Base 50)    
Moisture  
Dew Point 76 °F    
Average Humidity 82    
Maximum Humidity 100    
Minimum Humidity 59    
Precipitation  
Precipitation 0.19 in - - ()
Sea Level Pressure  
Sea Level Pressure 30.07 in    
Wind  
Wind Speed 5 mph (SE)    
Max Wind Speed 12 mph    
Max Gust Speed 18 mph    
Visibility 8 miles    
Events Rain    
T = Trace of Precipitation, MM = Missing Value Source: NWS Daily Summary

Daily Weather History Graph

Daily Weather History Graph

Search for Another Location

Airport or City:

Trip Planner

Search our weather history database for the weather conditions in past years. The results will help you decide how hot, cold, wet, or windy it might be!

Date:

Astronomy

Jul. 29, 2013 Rise Set
Actual Time 6:02 AM CDT 7:42 PM CDT
Civil Twilight 5:35 AM CDT 8:08 PM CDT
Nautical Twilight 5:04 AM CDT 8:40 PM CDT
Astronomical Twilight 4:30 AM CDT 9:13 PM CDT
Moon No Moon Rise 1:07 PM CDT (7/29)
Length of Visible Light 14h 32m
Length of Day
13h 40m
Waning Gibbous, 50% of the Moon is Illuminated
Jul 29
Waning Gibbous
Jul 29
Last Quarter
Aug 6
New
Aug 14
First Quarter
Aug 20
Full

Hourly Weather History & Observations

Time (CDT) Temp. Heat Index Dew Point Humidity Pressure Visibility Wind Dir Wind Speed Gust Speed Precip Events Conditions
12:58 AM 77.2 °F - 76.5 °F 98% 30.01 in 10.0 mi South 5.8 mph - N/A   Clear
1:58 AM 77.4 °F - 76.5 °F 97% 30.00 in 10.0 mi SSE 1.2 mph - N/A   Clear
2:58 AM 75.2 °F - 74.8 °F 99% 30.00 in 7.0 mi Calm Calm - N/A   Partly Cloudy
3:58 AM 74.7 °F - 74.5 °F 99% 30.01 in 6.0 mi East 3.5 mph - N/A   Clear
4:58 AM 75.4 °F - 75.0 °F 99% 30.02 in 10.0 mi Calm Calm - N/A   Clear
5:58 AM 73.4 °F - 73.2 °F 99% 30.04 in 3.0 mi NE 2.3 mph - N/A   Clear
6:58 AM 75.2 °F - 75.2 °F 100% 30.06 in 7.0 mi NNE 2.3 mph - N/A   Clear
7:58 AM 79.9 °F - 76.8 °F 90% 30.09 in 10.0 mi ESE 3.5 mph - N/A   Clear
8:55 AM 82.0 °F 88.6 °F 75.0 °F 79% 30.09 in 10.0 mi SSE 2.3 mph - N/A   Scattered Clouds
9:55 AM 86.5 °F 95.5 °F 74.8 °F 68% 30.09 in 10.0 mi East 4.6 mph - N/A   Scattered Clouds
10:55 AM 86.4 °F 94.2 °F 73.6 °F 66% 30.09 in 10.0 mi South 5.8 mph - N/A   Scattered Clouds
11:55 AM 89.2 °F 97.4 °F 73.4 °F 59% 30.09 in 10.0 mi SSE 4.6 mph - N/A   Scattered Clouds
12:55 PM 90.1 °F 100.6 °F 74.8 °F 61% 30.07 in 10.0 mi South 9.2 mph - N/A   Mostly Cloudy
1:55 PM 88.7 °F 97.7 °F 73.9 °F 62% 30.08 in 10.0 mi ESE 8.1 mph - N/A   Mostly Cloudy
2:53 PM 87.8 °F 99.7 °F 77.0 °F 70% 30.08 in 7.0 mi ESE 10.4 mph 18.4 mph N/A Rain Rain Showers
2:57 PM 84.6 °F 93.9 °F 76.3 °F 76% 30.09 in 2.0 mi ESE 10.4 mph 18.4 mph 0.00 in Rain Heavy Rain Showers
3:03 PM 86.0 °F 96.9 °F 77.0 °F 74% 30.08 in 1.5 mi SE 11.5 mph 18.4 mph N/A Rain Heavy Rain Showers
3:06 PM 82.4 °F 89.5 °F 75.2 °F 79% 30.06 in 5.0 mi South 8.1 mph 18.4 mph N/A Rain Rain Showers
3:20 PM 82.4 °F 90.9 °F 77.0 °F 84% 30.06 in 10.0 mi SE 3.5 mph - N/A   Mostly Cloudy
3:55 PM 87.4 °F 97.7 °F 75.6 °F 68% 30.06 in 10.0 mi South 8.1 mph - 0.19 in   Mostly Cloudy
4:55 PM 87.3 °F 97.7 °F 75.9 °F 69% 30.09 in 10.0 mi South 10.4 mph - N/A   Mostly Cloudy
5:55 PM 86.7 °F 97.3 °F 76.3 °F 71% 30.07 in 10.0 mi South 8.1 mph - N/A   Mostly Cloudy
6:56 PM 84.7 °F 93.2 °F 75.4 °F 73% 30.07 in 10.0 mi South 8.1 mph - N/A   Mostly Cloudy
7:55 PM 82.8 °F 91.3 °F 76.8 °F 82% 30.10 in 10.0 mi SSW 6.9 mph - N/A   Mostly Cloudy
8:57 PM 81.5 °F 88.7 °F 76.6 °F 85% 30.12 in 10.0 mi SSW 3.5 mph - N/A   Mostly Cloudy
9:57 PM 78.6 °F - 77.7 °F 97% 30.13 in 10.0 mi Calm Calm - N/A   Scattered Clouds
10:57 PM 77.9 °F - 77.5 °F 99% 30.15 in 10.0 mi SE 2.3 mph - N/A   Partly Cloudy
11:55 PM 77.4 °F - 77.0 °F 99% 30.14 in 10.0 mi NNE 1.2 mph - N/A   Partly Cloudy